Regional Weather Roundup
Issued by NWS

Home | Current Version | Previous Version | Text Only | Print | Product List | Glossary Off
Versions: 1 2 3 4 5 6 7 8 9 10 11 12 13 14 15 16 17 18 19 20 21 22 23 24 25 26 27 28 29 30 31 32 33 34 35 36 37 38 39 40 41 42 43 44 45 46 47 48 49 50

000
ASUS45 KTFX 070910
RWRMT
MONTANA REGIONAL WEATHER ROUNDUP
NATIONAL WEATHER SERVICE GREAT FALLS MT
200 AM MST WED DEC 07 2016

NOTE: "FAIR" INDICATES FEW OR NO CLOUDS BELOW 12000 FEET WITH NO
SIGNIFICANT WEATHER AND/OR OBSTRUCTIONS TO VISIBILITY.

MTZ001>007-043-071000-
WEST OF THE DIVIDE

CITY           SKY/WX    TMP DP  RH WIND       PRES   REMARKS
KALISPELL      CLOUDY     8  -3  61 N16G24    30.30R WCI -10
MISSOULA       CLOUDY    13   0  56 SE16      30.27R WCI  -3
BUTTE          CLOUDY     0  -6  76 CALM      30.09R
MULLAN PASS    FLURRIES   6   2  83 CALM      30.01R
ANACONDA         N/A      1  -6  71 CALM      30.15R
DEER LODGE       N/A      1  -8  66 NW7       30.19R WCI -11
EUREKA           N/A     -6 -11  77 CALM      30.37R
HAMILTON         N/A     14   5  67 CALM      30.21R
LIBBY            N/A     16   3  57 NE5       30.31R
RONAN            N/A     16   7  67 CALM      30.25R
$$

MTZ008-052>055-071000-
SOUTHWEST MONTANA

CITY           SKY/WX    TMP DP  RH WIND       PRES   REMARKS
BOZEMAN        CLOUDY     5  -1  76 SW7       30.20R WCI  -7
DILLON         CLOUDY     2  -4  76 E9        30.10R WCI -13
W YELLOWSTONE  CLOUDY   -20 -26  76 CALM      29.95R
ENNIS          CLOUDY     0  -4  85 NW3       30.15R
THREE FORKS      N/A      5 -52   5 N5        30.18R
$$

MTZ009-010-012-014-046-048-049-054-071000-
EAST SLOPES AND CENTRAL MONTANA

CITY           SKY/WX    TMP DP  RH WIND       PRES   REMARKS
CUT BANK       CLEAR     -9 -13  83 N7        30.33R WCI -24
GREAT FALLS    CLOUDY    -3  -9  75 W5        30.35R
MALMSTROM AFB  FLURRIES  -2  -7  78 W6        30.38R WCI -14
HELENA         CLOUDY     1  -8  66 W10       30.30R WCI -15
AUGUSTA        FLURRIES  -4  -9  79 N9        30.26R WCI -21
BOWMANS CRNR   FLURRIES  -7 -11  80 N5        30.26R
CHOTEAU          N/A     -2  -9  71 MISG      30.34R
CONRAD           N/A     -4 -11  72 NW7       30.32R WCI -18
FAIRFIELD      FLURRIES  -3  -9  75 NW6       30.32R WCI -15
POWER          FLURRIES  -4  -9  80 NW5       30.33R
RAYNESFORD     FLURRIES  -4 -10  79 W8        30.31R WCI -20
ULM            FLURRIES  -4  -7  85 W6        30.37R WCI -16
$$

MTZ011-013-016-021-045-047-050-051-071000-
NORTH CENTRAL MONTANA

CITY           SKY/WX    TMP DP  RH WIND       PRES   REMARKS
HAVRE          CLOUDY     0  -6  76 W10       30.43R WCI -16
LEWISTOWN      CLOUDY    -5 -10  79 W10       30.27R HAZE    WCI -23
N BAR RANCH      N/A     -4 -13  65 NW18      30.19R WCI -26
CHINOOK          N/A      0  -6  78 W10       30.43R WCI -17
DENTON           N/A     -6 -11  81 N12G23    30.30R WCI -25
GEYSER         MOCLDY    -4 -10  77 W16G24    30.26R WCI -25
GRASS RANGE    MOCLDY    -3 -10  74 W30G39    30.22R WCI -30
JUDITH GAP       N/A     -8 -13  80 N23G29    30.17R WCI -35
ROY              N/A     -4  -9  79 MISG      30.27R
$$

MTZ017>020-022>027-061-062-071000-
NORTHEAST MONTANA

CITY           SKY/WX    TMP DP  RH WIND       PRES   REMARKS
GLASGOW        CLOUDY     2  -6  69 NW30G39   30.32R WCI -23
JORDAN           N/A      1  -6  72 NW23G29   30.32R WCI -22
SIDNEY         FLURRIES   5  -2  72 NW26G33   30.23R WCI -18
WOLF POINT     CLOUDY     6  -4  63 W15       30.32R WCI -12
PLENTYWOOD       N/A      0  -6  78 NW20G29   30.21R WCI -22
POPLAR           N/A      3  -4  72 NW16G23   30.30R WCI -16
SCOBEY           N/A     -3 -14  59 NW8       30.21  WCI -18
$$

MTZ028>42-056>058-071000-
SOUTHCENTRAL AND SOUTHEAST MONTANA

CITY           SKY/WX    TMP DP  RH WIND       PRES   REMARKS
BAKER          CLOUDY    -1  -7  75 W21G30    30.21R WCI -24
BILLINGS       FLURRIES   3  -4  72 S7        30.25R WCI  -9
LIVINGSTON     CLOUDY     2  -6  69 W9        30.16R WCI -13
MILES CITY     PTCLDY     0  -8  69 NW13      30.32R WCI -18
BIG TIMBER     CLOUDY     3   0  85 W5        30.20R
EKALAKA          N/A     -5 -13  68 W15       30.12  WCI -26
FORSYTH          N/A      0  -6  78 W7        30.34R WCI -13
HARLOWTON      MOCLDY    -4 -10  75 N21G28    30.18R WCI -28
LAUREL           N/A      4  -8  57 NE3       30.20R
$$

REGIONAL REPORTS...DAKOTAS

CITY           SKY/WX    TMP DP  RH WIND       PRES   REMARKS
WILLISTON      CLOUDY     4  -3  73 NW13      30.24R WCI -13
MINOT          LGT SNOW   7   2  80 W33G43    30.03R VSB 1   WCI -17
DICKINSON      MIX PCPN   0  -6  76 NW25G33   30.12R WCI -24
BEACH          FLURRIES   1  -2  85 W24       30.23R WCI -22
CROSBY         CLOUDY     1   0  92 NW25G38   30.20R FOG     WCI -22
TIOGA          LGT SNOW   1   0  92 NW31      30.15R WCI -24
WATFORD CITY   CLOUDY     3  -2  78 NW17G23   30.20R WCI -17
BISMARCK       CLOUDY     4  -1  80 NW20G32   30.11R WCI -17
GRAND FORKS    LGT SNOW  16  11  80 NW30G41   29.81R VSB 1   WCI  -4
FARGO          CLOUDY    13   7  77 W22       29.89R HAZE    WCI  -6
BUFFALO SD       N/A     -1  -8  72 NW25      30.11R WCI -25
RAPID CITY     CLOUDY     5  -3  69 N14       30.16R WCI -12
$$

REGIONAL REPORTS...WYOMING/IDAHO/WASHINGTON

CITY           SKY/WX    TMP DP  RH WIND       PRES   REMARKS
GILLETTE       CLOUDY     2  -2  83 NW8       30.13R WCI -12
SHERIDAN       CLEAR      0  -6  76 W13       30.21R WCI -18
BUFFALO WY     MIX PCPN   2  -5  72 N21G28    30.09R WCI -20
CODY           LGT SNOW   4   0  83 NE9       30.09R FOG     WCI -10
YELLOWSTONE LA   N/A     -5  -9  83 CALM      29.85R
IDAHO FALLS    CLOUDY    11   2  67 NW7       30.06R WCI   0
SALMON         CLOUDY    10   9  92 CALM      30.13R
BOISE          CLEAR     16  13  88 CALM      30.20R
SPOKANE        CLOUDY    22  14  71 NE5       30.25R
$$

REGIONAL REPORTS...ALBERTA

CITY           SKY/WX    TMP DP  RH WIND       PRES   REMARKS
EDMONTON       CLEAR     -8 -17  65 NW9       30.51R WCI -25
CALGARY        PTCLDY    -8 -17  65 NW8       30.36R WCI -23
LETHBRIDGE     CLOUDY    -9 -15  77 W7        30.43R WCI -24
MEDICINE HAT   MOCLDY     0  -8  71 NW9       30.46R WCI -16
WATERTON GATE    N/A    -15 -20  76 CALM        N/A
CARDSTON         N/A    -11 -17  77 W1          N/A
MILK RIVER       N/A    -11 -17  77 W7          N/A  WCI -26
ONEFOUR          N/A     -4  -8  84 W18         N/A  WCI -26
$$

REGIONAL REPORTS...SASKATCHEWAN

CITY           SKY/WX    TMP DP  RH WIND       PRES   REMARKS
SWIFT CURRENT  PTCLDY    -8 -11  84 NW20G26   30.27R WCI -32
REGINA         CLOUDY     1  -2  85 NW21      30.23R WCI -20
SASKATOON      PTCLDY     0  -6  78 NW15G23   30.33R WCI -20
CYPRESS HILLS    N/A    -11 -17  77 NW12G22     N/A  WCI -31
VAL MARIE        N/A     -8 -15  71 W9          N/A  WCI -25
ROCKGLEN         N/A     -6 -11  77 NW14G22     N/A  WCI -26
ASSINIBOIA       N/A     -6 -11  77 NW16        N/A  WCI -28
$$



USA.gov is the U.S. government's official web portal to all federal, state and local government web resources and services.